Date,TemperatureHighF,TemperatureAvgF,TemperatureLowF,DewpointHighF,DewpointAvgF,DewpointLowF,HumidityHigh,HumidityAvg,HumidityLow,PressureMaxIn,PressureMinIn,WindSpeedMaxMPH,WindSpeedAvgMPH,GustSpeedMaxMPH,PrecipitationSumIn
2013-5-1,81,68,55,59,54,52,89,63,36,0.00,40.00,13,5,21,0.00
2013-5-2,72,66,59,55,52,51,78,63,48,0.00,40.00,17,8,22,0.00
2013-5-3,76,66,58,55,50,37,83,58,31,0.00,40.00,21,10,25,0.00
2013-5-4,71,63,56,48,42,36,66,48,30,0.00,40.00,21,12,26,0.00
2013-5-5,70,62,53,49,43,38,68,50,34,0.00,40.00,17,7,24,0.00
2013-5-6,69,61,55,56,49,41,85,65,48,0.00,40.00,10,5,15,1.10
2013-5-7,72,62,53,60,54,51,95,78,51,0.00,40.00,7,3,17,0.00
2013-5-8,77,63,55,58,54,47,95,73,37,0.00,40.00,25,4,33,0.00
2013-5-9,80,67,53,59,54,45,95,67,31,0.00,40.00,15,3,23,0.00
2013-5-10,68,62,54,63,57,-100,99,89,79,0.00,40.00,12,7,26,5.63
2013-5-11,58,49,42,51,45,38,98,87,71,0.00,40.00,29,7,35,1.10
2013-5-12,50,44,38,38,31,-100,89,64,40,0.00,40.00,17,9,28,0.00
2013-5-13,58,47,37,39,31,25,91,56,29,0.00,40.00,12,3,19,0.00
2013-5-14,80,62,43,58,44,32,76,52,40,0.00,40.00,18,8,29,0.00
2013-5-15,86,76,68,60,57,53,71,53,32,0.00,40.00,21,9,34,0.00
2013-5-16,78,67,60,64,33,-100,94,56,30,0.00,40.00,8,2,17,0.55
2013-5-17,82,67,54,64,54,-100,100,76,29,0.00,40.00,14,5,21,1.10
2013-5-18,78,68,58,63,56,48,81,65,51,0.00,40.00,11,3,16,0.00
2013-5-19,83,71,58,66,61,53,95,70,47,0.00,40.00,10,5,16,0.00
2013-5-20,85,76,68,70,66,64,94,72,51,0.00,40.00,16,8,27,0.00
2013-5-21,85,76,67,66,61,57,84,62,39,0.00,40.00,17,8,30,0.00
2013-5-22,78,71,65,63,60,56,85,69,51,0.00,40.00,20,9,35,0.00
2013-5-23,68,60,47,60,55,43,96,84,65,0.00,40.00,20,9,29,0.00
2013-5-24,63,52,46,45,38,31,92,60,30,0.00,40.00,15,6,22,0.00
2013-5-25,67,55,41,42,38,34,89,55,33,0.00,40.00,8,2,16,0.00
2013-5-26,69,58,45,38,35,32,67,43,27,0.00,40.00,9,3,14,0.00
2013-5-27,71,59,50,58,48,32,93,68,38,0.00,40.00,21,11,27,2.79
2013-5-28,81,72,61,67,62,57,95,71,55,0.00,40.00,12,3,24,0.00
2013-5-29,86,77,70,63,60,58,69,55,38,0.00,40.00,11,2,19,0.00
2013-5-30,87,78,68,69,64,59,85,64,44,0.00,40.00,0,0,0,0.55
2013-5-31,81,73,69,69,66,64,95,79,59,0.00,40.00,0,0,0,0.55